Regional Weather Roundup
Issued by NWS

Home | Current Version | Previous Version | Text Only | Print | Product List | Glossary On
Versions: 1 2 3 4 5 6 7 8 9 10 11 12 13 14 15 16 17 18 19 20 21 22 23 24 25 26 27 28 29 30 31 32 33 34 35 36 37 38 39 40 41 42 43 44 45 46 47 48 49 50
000
ASUS43 KTOP 121708
RWRKS

WEATHER ROUNDUP FOR KANSAS
NATIONAL WEATHER SERVICE GOODLAND KS
1100 AM CST TUE DEC 12 2017

NOTE:  "FAIR" INDICATES FEW OR NO CLOUDS BELOW 12,000 FEET WITH NO
SIGNIFICANT WEATHER AND/OR OBSTRUCTIONS TO VISIBILITY.

KSZ001>006-013>018-027>032-041>047-121800-
NORTHWEST KANSAS

CITY           SKY/WX    TMP DP  RH WIND       PRES   REMARKS
GOODLAND       SUNNY     52  16  24 W10       30.28F
HAYS           SUNNY     42  26  53 SW8       30.34F
HILL CITY      SUNNY     42  25  50 W6        30.31F
RUSSELL        SUNNY     38  28  67 W3        30.33F
$$

KSZ061>065-074>080-084>089-121800-
SOUTHWEST KANSAS

CITY           SKY/WX    TMP DP  RH WIND       PRES   REMARKS
DODGE CITY     SUNNY     42  21  43 W12       30.37F
ELKHART        SUNNY     55  19  24 W9        30.37F
GARDEN CITY    SUNNY     43  13  29 W13       30.35F
GREAT BEND     SUNNY     41  27  57 W7        30.36F
LIBERAL        SUNNY     47  14  26 W9        30.39F
$$

KSZ066>073-081>083-090>101-121800-
SOUTHEAST KANSAS

CITY           SKY/WX    TMP DP  RH WIND       PRES   REMARKS
CHANUTE        SUNNY     37  14  38 NW10      30.38F WCI  30
COFFEYVILLE    SUNNY     39  15  37 NW12      30.40S WCI  32
HUTCHINSON     SUNNY     39  29  67 SW7       30.38F
MEDICINE LODGE   N/A     41  28  60 W6        30.40F
NEWTON         SUNNY     39  26  59 W9        30.38F
PARSONS        SUNNY     38  17  42 NW9       30.39F
WICHITA INTL   SUNNY     40  28  62 W5        30.39F
WICHITA JABRA  SUNNY     38  27  64 W7        30.39S
WICHITA MCCONL SUNNY     39  25  57 W8        30.39S
WINFIELD       SUNNY     40  27  59 NW8       30.41F
$$

KSZ007>012-019>026-033>040-048>060-102>105-121800-
NORTHEAST KANSAS

CITY           SKY/WX    TMP DP  RH WIND       PRES   REMARKS
CONCORDIA      SUNNY     39  28  64 SW9       30.32F
EMPORIA        SUNNY     37  21  52 N8        30.37F
LAWRENCE       SUNNY     32  12  43 W6        30.37F
MANHATTAN      CLOUDY    35  24  64 W7        30.37S
MARYSVILLE     CLOUDY    34  25  69 SW8       30.33F
OLATHE IND     SUNNY     29  13  51 W8        30.35F
OLATHE EXE     SUNNY     29  13  51 NW6       30.34F
SALINA         SUNNY     42  29  59 SW8       30.37F
TOPEKA BILLARD SUNNY     33  17  51 W7        30.38S
TOPEKA FORBES  SUNNY     34  15  46 NW7       30.36F
$$




USA.gov is the U.S. government's official web portal to all federal, state and local government web resources and services.